Location: Petrozavodsk
(61.7955°N, 34.3748°E)
Time: 14:09:44
(UTC+03:00)

BlueWalker 3 - Pass Details

Date: 30 March 2023
Orbit: 493 x 513 km, 53.2° (Epoch: 09 June)

Event Time Altitude Azimuth Distance (km) Brightness Sun altitude
Rises 20:51:06 0° 214° (SSW) 2,617 5.6 -10.6°
Reaches altitude 10° 20:54:01 10° 191° (S) 1,728 4.5 -10.9°
Maximum altitude 20:56:19 15° 155° (SSE) 1,428 3.7 -11.1°
Enters shadow 20:56:54 15° 144° (SE) 1,449 3.7 -11.2°
